Regional Weather Roundup
Issued by NWS

Home | Current Version | Previous Version | Graphics & Text | Print | Product List | Glossary On
Versions: 1 2 3 4 5 6 7 8 9 10 11 12 13 14 15 16 17 18 19 20 21 22 23 24 25 26 27 28 29 30 31 32 33 34 35 36 37 38 39 40 41 42 43 44 45 46 47 48 49 50
000
ASUS43 KMPX 272201
RWRMN
WEATHER ROUNDUP FOR MINNESOTA
NATIONAL WEATHER SERVICE TWIN CITIES/CHANHASSEN MN
500 PM CDT THU AUG 27 2015


NOTE: "FAIR" INDICATES FEW OR NO CLOUDS BELOW 12,000 FEET WITH NO
SIGNIFICANT WEATHER AND/OR OBSTRUCTIONS TO VISIBILITY. N/A MEANS
CURRENT SKY AND/OR WEATHER CONDITIONS ARE NOT AVAILABLE.

MNZ060>063-068>070-272300-
   Twin Cities Metro

CITY           SKY/WX    TMP DP  RH WIND       PRES   REMARKS
TWIN CITIES    CLOUDY    76  60  57 S13       30.03F
ST PAUL        PTSUNNY   74  61  63 S10       30.03F
CRYSTAL        CLOUDY    77  61  57 S13G18    30.01S
BLAINE         CLOUDY    75  63  64 S12       30.02F
LAKEVILLE      FAIR      72  63  73 S8        30.04S
EDEN PRAIRIE   FAIR      76  61  59 SW17G23   30.02S
SOUTH ST PAUL  PTSUNNY   74  59  58 S7        30.03S
LAKE ELMO      PTSUNNY   72  63  73 S7        30.05S
$$
MNZ001>005-007-008-013>017-022>024-027-028-272300-
   Northwest Minnesota

CITY           SKY/WX    TMP DP  RH WIND       PRES   REMARKS
BEMIDJI        PTSUNNY   76  64  66 S8        29.96S
HALLOCK        FAIR      79  61  53 S8        29.91F
ROSEAU         FAIR      79  63  57 SW5       29.93F
WARROAD        FAIR      72  63  73 NE3       29.94F
THIEF RVR FALL FAIR     N/A N/A N/A SE6       29.92F
CROOKSTON      FAIR      79  64  61 SW8       29.93S
FOSSTON        FAIR      81  64  57 SW9       29.95S
DETROIT LAKES  FAIR      73  64  73 S6        29.98R
MOORHEAD       FAIR      75  64  69 S3        29.94S
PARK RAPIDS    CLOUDY    75  63  66 S9        29.97S
MAHNOMEN       FAIR      76  66  70 S6        29.94F
$$
MNZ006-009>011-018-025>026-272300-
   North Central Minnesota

CITY           SKY/WX    TMP DP  RH WIND       PRES   REMARKS
BAUDETTE       FAIR      76  59  55 SW7       29.94F
FLAG ISLAND    FAIR      72  55  56 CALM      29.93F HAZE
INTL FALLS     FAIR      75  57  53 SW7       29.96F
WASKISH        FAIR      75  63  64 S5        29.95S
BIG FORK       FAIR      73  61  64 S5        29.98S
LONGVILLE      CLOUDY    72  64  78 SE5       29.98S
GRAND RAPIDS     N/A     73  59  60 S10       29.99S
CRANE LAKE     FAIR      73  55  53 S3        29.99F
COOK           FAIR      73  57  56 S6        29.99S
WALKER         CLOUDY    74  63  69 S7        29.96S
$$
MNZ012-019>021-037-272300-
   Northeast Minnesota

CITY           SKY/WX    TMP DP  RH WIND       PRES   REMARKS
DULUTH         CLOUDY    72  56  57 S12       30.02S
ELY            FAIR      73  52  46 S7        30.00F
HIBBING        FAIR      73  56  54 S8        29.99F
EVELETH        FAIR      72  55  56 S9        30.01S
DULUTH HARBOR  PTSUNNY   57  54  88 NE3       30.03S
TWO HARBORS    FAIR      72  59  64 SE5       30.01S
SILVER BAY     CLOUDY    70  55  60 SE3       30.01S
GRAND MARAIS     N/A     61  51  70 CALM      30.03F
G MARAIS ARPRT FAIR      64  50  59 S6        30.06F
$$
MNZ029>031-032-039>041-046>048-054>057-064-272300-
   West Central Minnesota

CITY           SKY/WX    TMP DP  RH WIND       PRES   REMARKS
FERGUS FALLS   FAIR      75  66  73 S7        29.94S
WHEATON        FAIR      72  64  78 S8        29.96S
MORRIS         FAIR      75  66  73 S8        29.95S
ALEXANDRIA     FAIR      73  63  70 S9        29.99S
ELBOW LAKE     FAIR      73  65  76 S12       29.96S
WADENA         FAIR      73  63  68 S10       29.97S
GLENWOOD       FAIR      75  66  73 S10       29.99R
APPLETON       FAIR      77  66  69 SW7       29.95S
BENSON         FAIR      73  64  73 SW6       29.97R
ORTONVILLE     FAIR      75  66  73 SW5       29.95S
MADISON        FAIR      75  66  73 S6        29.95F
WILLMAR        FAIR      72  66  83 CALM      29.99F
$$
MNZ033>034-036-042>043-049>051-058-059-272300-
   Central Minnesota

CITY           SKY/WX    TMP DP  RH WIND       PRES   REMARKS
ST CLOUD       PTSUNNY   74  62  66 S13       30.00S
SAUK CENTRE    MOCLDY    75  65  70 S14       29.98S
PAYNESVILLE    FAIR      73  62  68 SE12      29.99F
AITKIN         CLOUDY    73  63  68 SE7       29.99S
PINE RIVER     CLOUDY    73  64  73 S6        30.01S
BRAINERD       CLOUDY    74  62  66 S13       29.99S
STAPLES        PTSUNNY   72  61  68 S10       29.98S
LONG PRAIRIE   FAIR      72  63  73 SE9       29.99F
LITTLE FALLS   PTSUNNY   73  61  64 S9        29.99F
LITCHFIELD     FAIR      73  64  73 SE5       30.01F
BUFFALO        FAIR      75  60  60 S10G16    30.03R
MAPLE LAKE     FAIR      74  64  70 S9        30.03R
$$
MNZ037-044-045-052-053-272300-
   East Central Minnesota

CITY           SKY/WX    TMP DP  RH WIND       PRES   REMARKS
PRINCETON      PTSUNNY   75  63  64 S9        30.01S
MORA           FAIR      73  61  64 S5        30.03S
CAMBRIDGE      FAIR      75  61  60 S8        30.00F
RUSH CITY      PTSUNNY   72  60  65 S7        30.02F
MOOSE LAKE     FAIR      72  59  64 S6        30.00S
HINCKLEY       CLOUDY    72  61  68 S7        30.02S
CLOQUET        PTSUNNY   73  55  53 S9        30.02R
MCGREGOR       PTSUNNY   72  61  68 S10       30.01S
$$
MNZ071>073-080-081-089-090-097-098-272300-
   Southwest Minnesota

CITY           SKY/WX    TMP DP  RH WIND       PRES   REMARKS
MONTEVIDEO     FAIR      75  66  73 SW6       29.98F
GRANITE FALLS  FAIR      70  64  82 SE3       29.99F
CANBY          PTSUNNY   73  67  80 S5        29.97F
MARSHALL       CLOUDY    72  63  73 CALM      29.99S
REDWOOD FALLS  PTSUNNY   68  64  87 SE7       30.00R
OLIVIA         FAIR      68  63  83 SE5       29.98F
PIPESTONE      FAIR      75  66  73 E6        30.00S
WINDOM         FAIR      73  63  68 SE10      30.04R
WORTHINGTON    PTSUNNY   73  64  73 E10       30.01F
JACKSON        CLOUDY    70  63  78 SE10      30.05F
TRACY            N/A     75  69  80 S10       29.99S
SLAYTON        FAIR      73  66  77 SE6       30.03R
$$
MNZ065>067-074>077-082>085-091>093-272300-
   South Central Minnesota

CITY           SKY/WX    TMP DP  RH WIND       PRES   REMARKS
MANKATO        FAIR      64  59  82 S13G25    29.96F
NEW ULM        FAIR      66  64  94 S14G24    30.00R
ST JAMES       FAIR      70  64  83 SE7       30.04S
FAIRMONT       FAIR      66  57  72 SE7       30.05F
GLENCOE        FAIR      70  63  79 CALM      30.02R
FARIBAULT      LGT RAIN  70  61  73 S8G16     30.04F
OWATONNA       LGT RAIN  70  59  68 S12       30.06F
WASECA         LGT RAIN  64  59  82 S9        30.04F
ALBERT LEA     LGT RAIN  70  57  64 SE6       30.08F
$$
MNZ078>079-086>088-094>096-272300-
   Southeast Minnesota

CITY           SKY/WX    TMP DP  RH WIND       PRES   REMARKS
ROCHESTER      FAIR      70  60  70 S8        30.09R
RED WING       FAIR      75  57  53 SW5       30.04S
STANTON        FAIR      73  61  64 S5        30.05R
DODGE CENTER   FAIR      70  61  73 SW12      30.09R
WINONA         FAIR      73  59  60 CALM      30.07R
AUSTIN         FAIR      72  61  68 SW8       30.11R
PRESTON        FAIR      71  58  63 S6        30.09R
$$
ABBREVIATIONS USED IN REMARKS
   TC - TEMPERATURES IN CELSIUS
  WCI - WIND CHILL INDEX
   HX - HEAT INDEX
  VSB - VISIBILITY
$$


USA.gov is the U.S. government's official web portal to all federal, state and local government web resources and services.